Location: Hawks Ness
(60.2333°N, 1.1667°W)
Time: 22:29:59
(UTC+00:00)

CENTAUR R/B - Visible Passes

Search period start: 23 January 2020 00:00
Search period end: 02 February 2020 00:00
Orbit: 773 x 1415 km, 63.4° (Epoch: 18 January)

Date Brightness Start Highest point End Pass type
(mag) Time Alt. Az. Time Alt. Az. Time Alt. Az.
23 Jan 4.5 02:10:29 28° E 02:10:29 28° E 02:14:07 10° E visible
23 Jan 3.0 03:57:40 78° SSE 03:57:40 78° SSE 04:05:37 10° SE visible
23 Jan 3.5 05:44:52 33° W 05:47:28 42° SW 05:55:19 10° SSE visible
23 Jan 4.6 07:32:33 10° WNW 07:36:33 15° WSW 07:40:42 10° SW visible
24 Jan 5.1 01:24:00 16° E 01:24:00 16° E 01:25:28 10° E visible
24 Jan 3.6 03:11:12 50° ESE 03:11:12 50° ESE 03:17:11 10° ESE visible
24 Jan 3.1 04:58:24 51° WSW 04:59:23 54° SW 05:07:38 10° SSE visible
24 Jan 4.3 06:45:35 17° W 06:48:55 21° WSW 06:54:51 10° SSW visible
25 Jan 4.4 02:24:49 30° E 02:24:49 30° E 02:28:37 10° ESE visible
25 Jan 3.1 04:12:01 64° S 04:12:01 64° S 04:19:39 10° SE visible
25 Jan 3.8 05:59:13 27° W 06:01:08 29° WSW 06:08:10 10° S visible
26 Jan 5.1 01:38:30 16° E 01:38:30 16° E 01:40:00 10° E visible
26 Jan 3.7 03:25:43 47° SE 03:25:43 47° SE 03:31:27 10° SE visible
26 Jan 3.5 05:12:55 39° WSW 05:13:13 39° SW 05:20:57 10° S visible
26 Jan 4.6 07:00:08 12° W 07:02:11 13° WSW 07:05:42 10° SW visible
27 Jan 4.5 02:39:31 28° ESE 02:39:31 28° ESE 02:43:03 10° ESE visible
27 Jan 3.5 04:26:43 46° SSW 04:26:43 46° SSW 04:33:20 10° SSE visible
27 Jan 4.3 06:13:57 19° WSW 06:14:35 20° WSW 06:20:11 10° SSW visible
28 Jan 5.2 01:53:25 14° ESE 01:53:25 14° ESE 01:54:31 10° ESE visible
28 Jan 4.0 03:40:39 36° SSE 03:40:39 36° SSE 03:45:25 10° SE visible
28 Jan 4.0 05:27:53 27° SW 05:27:53 27° SW 05:33:39 10° S visible
29 Jan 4.7 02:54:42 22° SE 02:54:42 22° SE 02:57:15 10° SE visible
29 Jan 4.1 04:41:56 29° SSW 04:41:56 29° SSW 04:46:33 10° S visible
29 Jan 4.8 06:29:11 11° WSW 06:29:11 11° WSW 06:30:32 10° WSW visible
29 Jan 4.5 20:21:31 10° SSW 20:22:22 14° SSW 20:22:22 14° SSW visible
30 Jan 5.4 02:08:51 10° ESE 02:08:51 10° ESE 02:08:54 10° ESE visible
30 Jan 4.5 03:56:07 23° S 03:56:07 23° S 03:59:01 10° SSE visible
30 Jan 4.7 05:43:21 15° SW 05:43:21 15° SW 05:45:28 10° SW visible
30 Jan 3.9 19:34:04 10° S 19:36:42 23° SSE 19:36:42 23° SSE visible
30 Jan 4.7 21:23:01 10° SW 21:23:57 15° SW 21:23:57 15° SW visible
31 Jan 5.1 03:10:24 13° SSE 03:10:24 13° SSE 03:11:11 10° SSE visible
31 Jan 4.8 04:57:40 14° SSW 04:57:40 14° SSW 04:59:07 10° SSW visible
31 Jan 3.7 18:47:03 10° SSE 18:50:57 23° SE 18:50:57 23° SE visible
31 Jan 3.7 20:34:58 10° SW 20:38:12 33° SSW 20:38:12 33° SSW visible
31 Jan 5.1 22:25:19 10° W 22:25:27 11° W 22:25:27 11° W visible
01 Feb 5.2 04:12:04 10° S 04:12:04 10° S 04:12:08 10° S visible
01 Feb 4.0 18:00:40 10° SE 18:04:18 16° ESE 18:05:06 16° E visible
01 Feb 3.0 19:47:11 10° SSW 19:52:21 47° SSE 19:52:21 47° SSE visible
01 Feb 4.2 21:37:00 10° WSW 21:39:35 27° WSW 21:39:35 27° WSW visible
